Simultaneous Nadir Overpasses (SNOs) Predictions

Prediction of SNOs between GOES-15 and METOP-A Satellite Orbit:

Table of predicted SNOs for the next 14.0 days since TLE Epoch: 1/23/2022
Index Date Time (GOES-15) GOES-15 Lat,Lon METOP-A Lat,Lon Distance(km) Time Diff (sec)
1 01/25/2022 04:23:58 0.03,-128.34 0.60,-125.76 294.03 80
2 01/25/2022 16:41:48 -0.03,-128.36 0.17,-129.41 118.88 80
3 01/28/2022 04:25:50 0.03,-128.32 0.55,-126.07 256.31 80
4 01/28/2022 16:43:38 -0.03,-128.34 0.26,-129.72 156.74 80
5 01/31/2022 04:30:19 0.03,-128.28 0.46,-126.38 217.67 80
6 01/31/2022 16:45:30 -0.02,-128.30 0.32,-130.03 196.25 80
7 02/03/2022 04:29:27 -0.01,-128.24 0.35,-126.66 180.24 80
8 02/03/2022 16:47:21 0.02,-128.26 0.47,-130.32 235.10 80
